Location: Albany
(35.0170°S, 117.8920°E)
Time: 21:09:25
(UTC+08:00)

S-56A Canister/Altair - Pass Details

Date: 25 June 2021
Orbit: 632 x 2501 km, 38.9° (Epoch: 24 July)

Event Time Altitude Azimuth Distance (km) Brightness Sun altitude
Rises 20:46:34 0° 248° (WSW) 6,186 12.8 -44.4°
Reaches altitude 10° 20:50:55 10° 252° (WSW) 5,108 12.2 -45.3°
Maximum altitude 21:04:27 49° 320° (NW) 2,538 10.0 -48.0°
Enters shadow 21:04:42 49° 323° (NW) 2,528 10.0 -48.1°
